Regional Weather Roundup
Issued by NWS

Home | Current Version | Previous Version | Graphics & Text | Print | Product List | Glossary On
Versions: 1 2 3 4 5 6 7 8 9 10 11 12 13 14 15 16 17 18 19 20 21 22 23 24 25 26 27 28 29 30 31 32 33 34 35 36 37 38 39 40 41 42 43 44 45 46 47 48 49 50
000
ASUS43 KOAX 270510
RWRNE

WEATHER ROUNDUP FOR NEBRASKA
NATIONAL WEATHER SERVICE OMAHA NE
1200 AM CDT THU APR 27 2017

NOTES: SATELLITE DATA IS BEING USED TO AUGMENT CLOUD COVER ABOVE
       12000 FEET.
       "FAIR" INDICATES FEW OR NO CLOUDS BELOW 12,000 FEET WITH NO
       SIGNIFICANT WEATHER AND/OR OBSTRUCTIONS TO VISIBILITY.

  * THESE STATIONS DO NOT REPORT WEATHER SUCH AS RAIN...SNOW OR FOG.

NEZ001>004-019>022-054>056-270600-
NEBRASKA PANHANDLE

CITY           SKY/WX    TMP DP  RH WIND       PRES   REMARKS
SCOTTSBLUFF    CLOUDY    41  37  86 E7        29.69F
ALLIANCE       CLEAR     33  29  85 E5        29.70S WCI  29
CHADRON        CLEAR     32  28  85 CALM      29.72F
KIMBALL        DRIZZLE   40  38  94 S7        29.71F
SIDNEY         LGT RAIN  41  38  89 W3        29.72S
$$

NEZ057>060-069>072-079>082-270600-
SOUTHWEST NEBRASKA

CITY           SKY/WX    TMP DP  RH WIND       PRES   REMARKS
NORTH PLATTE   PTCLDY    35  29  78 CALM      29.72F
IMPERIAL       PTCLDY    41  31  67 CALM      29.73S
LEXINGTON      CLEAR     31  27  82 N5        29.73S WCI  27
MCCOOK         CLOUDY    37  28  70 NE5       29.73R WCI  33
OGALLALA       CLOUDY    44  32  63 E5        29.72S
$$

NEZ005>010-023>029-035>040-094-270600-
NORTH CENTRAL NEBRASKA

CITY           SKY/WX    TMP DP  RH WIND       PRES   REMARKS
VALENTINE      CLEAR     31  25  78 NW6       29.71S WCI  25
AINSWORTH      CLEAR     32  29  88 NW5       29.71S WCI  27
BROKEN BOW     CLEAR     31  26  82 CALM      29.72S
O`NEILL        PTCLDY    32  27  82 N5        29.73R WCI  27
ORD            CLEAR     31  26  82 CALM      29.71R
THEDFORD       CLEAR     31  28  91 W7        29.73F WCI  24
$$

NEZ041-046>049-061>064-073>077-083>087-270600-
SOUTH CENTRAL NEBRASKA

CITY           SKY/WX    TMP DP  RH WIND       PRES   REMARKS
GRAND ISLAND   CLEAR     30  27  88 W8        29.73F WCI  22
AURORA         CLEAR     30  26  83 W7        29.72F WCI  23
HASTINGS       CLEAR     32  27  81 W6        29.74F WCI  26
HEBRON         PTCLDY    36  30  78 CALM      29.74S
HOLDREGE       CLEAR     32  27  82 NE6       29.73F WCI  26
KEARNEY *      CLEAR     34  27  75 NW3       29.75S
YORK           CLEAR     32  27  80 NW8       29.71F WCI  25
$$

NEZ011>018-030>034-042>045-270600-
NORTHEAST NEBRASKA

CITY           SKY/WX    TMP DP  RH WIND       PRES   REMARKS
NORFOLK        CLOUDY    37  30  75 NW10      29.69F WCI  30
ALBION         CLEAR     31  28  86 CALM      29.72S
BLAIR          CLOUDY    39  32  76 NW6G12    29.67F WCI  35
FREMONT        CLOUDY    39  32  77 NW9       29.69F WCI  32
TEKAMAH        CLOUDY    39  29  67 NW14      29.68F WCI  31
WAYNE          CLOUDY    35  32  87 NW9       29.69F WCI  28
$$

NEZ050>053-065>068-078-088>093-270600-
SOUTHEAST NEBRASKA

CITY           SKY/WX    TMP DP  RH WIND       PRES   REMARKS
LINCOLN        CLOUDY    43  30  60 W6        29.71F
OMAHA EPPLEY   CLOUDY    40  31  70 NW10      29.69S WCI  33
BEATRICE       CLOUDY    43  32  66 N12       29.71F
FALLS CITY     CLOUDY    42  33  70 NW13      29.69R
NEBRASKA CITY  CLOUDY    41  30  65 N9        29.69S
PLATTSMOUTH    CLOUDY    40  28  62 NW14      29.68S WCI  32
$$

NEZ044-045-051>053-067-270600-
OMAHA AREA

CITY           SKY/WX    TMP DP  RH WIND       PRES   REMARKS
OMAHA EPPLEY   CLOUDY    40  31  70 NW10      29.69S WCI  33
BLAIR          CLOUDY    39  32  76 NW6G12    29.67F WCI  35
FREMONT        CLOUDY    39  32  77 NW9       29.69F WCI  32
MILLARD        CLOUDY    42  32  68 NW10      29.69S
OFFUTT AFB     CLOUDY    40  30  67 NW8       29.68F WCI  35
PLATTSMOUTH    CLOUDY    40  28  62 NW14      29.68S WCI  32
WAHOO          CLOUDY    40  32  73 NW9       29.69F WCI  33
$$




USA.gov is the U.S. government's official web portal to all federal, state and local government web resources and services.